Location: B�hl
(48.6968°N, 8.1352°E)
Time: 11:20:51
(UTC+00:00)

Cosmos 2366 rocket - Pass Details

Date: 08 March 2021
Orbit: 955 x 997 km, 82.9° (Epoch: 11 April)

Event Time Altitude Azimuth Distance (km) Brightness Sun altitude
Rises 18:43:27 0° 183° (S) 3,690 7.0 -14.2°
Reaches altitude 10° 18:45:57 10° 182° (S) 2,749 6.3 -14.6°
Maximum altitude 18:52:16 81° 97° (E) 1,015 4.0 -15.6°
Drops below altitude 10° 18:58:40 10° 11° (N) 2,778 6.4 -16.6°
Sets 19:01:12 0° 11° (N) 3,730 7.1 -17.1°
